When you browse on this site, cookies collect data to enhance your experience and personalize the content and advertising you see.
Visit our Privacy Policy to learn more. By continuing to use the site, you agree to this use of cookies and data.

Hourly Weather Tokyo

Today, 5 July, Sunday

Time Temperature Precipitation Wind Pressure Humidity
00:00 +28°C° 0.1 mm 7 mps 751 mmHg 77%
01:00 +28°C° 0 mm 6 mps 751 mmHg 77%
02:00 +28°C° 0 mm 5 mps 751 mmHg 77%
03:00 +27°C° 0 mm 4 mps 751 mmHg 75%
04:00 +27°C° 0 mm 4 mps 751 mmHg 75%
05:00 +27°C° 0 mm 4 mps 751 mmHg 74%
06:00 +28°C° 0 mm 4 mps 752 mmHg 73%
07:00 +29°C° 0 mm 5 mps 752 mmHg 69%
08:00 +29°C° 0 mm 5 mps 752 mmHg 64%
09:00 +30°C° 0 mm 6 mps 752 mmHg 60%
10:00 +30°C° 0 mm 7 mps 752 mmHg 61%
11:00 +31°C° 0 mm 8 mps 753 mmHg 62%
12:00 +31°C° 0 mm 9 mps 753 mmHg 63%
13:00 +31°C° 0 mm 9 mps 752 mmHg 61%
14:00 +31°C° 0 mm 10 mps 752 mmHg 60%
15:00 +29°C° 0 mm 10 mps 752 mmHg 59%
16:00 +29°C° 0 mm 10 mps 752 mmHg 60%
17:00 +29°C° 0 mm 10 mps 752 mmHg 61%
18:00 +29°C° 0 mm 9 mps 753 mmHg 62%
19:00 +29°C° 0 mm 9 mps 753 mmHg 64%
20:00 +29°C° 0 mm 9 mps 753 mmHg 66%
21:00 +28°C° 0 mm 9 mps 753 mmHg 67%
22:00 +28°C° 0 mm 9 mps 753 mmHg 68%
23:00 +28°C° 0 mm 9 mps 753 mmHg 68%

Tomorrow, 6 July, Monday

Time Temperature Precipitation Wind Pressure Humidity
00:00 +28°C° 0 mm 9 mps 754 mmHg 69%
01:00 +27°C° 0.3 mm 8 mps 754 mmHg 73%
02:00 +27°C° 0.3 mm 8 mps 754 mmHg 77%
03:00 +27°C° 0.3 mm 8 mps 754 mmHg 81%
04:00 +27°C° 0.5 mm 8 mps 754 mmHg 80%
05:00 +27°C° 0.5 mm 7 mps 754 mmHg 79%
06:00 +27°C° 0.5 mm 6 mps 754 mmHg 78%
07:00 +27°C° 0.2 mm 7 mps 755 mmHg 77%
08:00 +27°C° 0.2 mm 7 mps 755 mmHg 76%
09:00 +27°C° 0.2 mm 7 mps 755 mmHg 75%
10:00 +27°C° 0 mm 8 mps 755 mmHg 74%
11:00 +28°C° 0 mm 8 mps 756 mmHg 74%
12:00 +28°C° 0 mm 8 mps 756 mmHg 74%
13:00 +28°C° 0.6 mm 9 mps 755 mmHg 76%
14:00 +27°C° 0.6 mm 9 mps 755 mmHg 78%
15:00 +27°C° 0.6 mm 9 mps 755 mmHg 81%
16:00 +27°C° 0.2 mm 9 mps 755 mmHg 80%
17:00 +27°C° 0.2 mm 9 mps 755 mmHg 78%
18:00 +27°C° 0.2 mm 9 mps 755 mmHg 77%
19:00 +27°C° 0.1 mm 10 mps 755 mmHg 78%
20:00 +27°C° 0.1 mm 10 mps 755 mmHg 79%
21:00 +27°C° 0.1 mm 10 mps 756 mmHg 80%
22:00 +27°C° 0 mm 10 mps 755 mmHg 80%
23:00 +27°C° 0 mm 10 mps 755 mmHg 79%

Day after tomorrow, 7 July, Tuesday

Time Temperature Precipitation Wind Pressure Humidity
00:00 +27°C° 0 mm 10 mps 755 mmHg 79%
01:00 +27°C° 0.3 mm 10 mps 755 mmHg 79%
02:00 +27°C° 0.3 mm 10 mps 754 mmHg 80%
03:00 +27°C° 0.3 mm 10 mps 754 mmHg 81%
04:00 +27°C° 0.3 mm 10 mps 754 mmHg 79%
05:00 +27°C° 0.3 mm 9 mps 754 mmHg 77%
06:00 +27°C° 0.3 mm 9 mps 754 mmHg 75%
07:00 +27°C° 0 mm 9 mps 754 mmHg 73%
08:00 +28°C° 0 mm 9 mps 754 mmHg 72%
09:00 +28°C° 0 mm 9 mps 754 mmHg 70%
10:00 +28°C° 0 mm 10 mps 754 mmHg 70%
11:00 +28°C° 0 mm 10 mps 754 mmHg 70%
12:00 +29°C° 0 mm 10 mps 754 mmHg 70%
13:00 +29°C° 0.1 mm 10 mps 753 mmHg 71%
14:00 +28°C° 0.1 mm 10 mps 753 mmHg 72%
15:00 +28°C° 0.1 mm 10 mps 752 mmHg 73%
16:00 +28°C° 0.2 mm 10 mps 752 mmHg 75%
17:00 +28°C° 0.2 mm 10 mps 752 mmHg 77%
18:00 +28°C° 0.2 mm 10 mps 753 mmHg 79%
19:00 +28°C° 0.1 mm 10 mps 753 mmHg 78%
20:00 +28°C° 0.1 mm 10 mps 753 mmHg 77%
21:00 +28°C° 0.1 mm 10 mps 753 mmHg 77%
22:00 +27°C° 0.1 mm 9 mps 753 mmHg 77%
23:00 +27°C° 0.1 mm 9 mps 752 mmHg 78%

8 July, Wednesday

Time Temperature Precipitation Wind Pressure Humidity
00:00 +27°C° 0.1 mm 9 mps 752 mmHg 79%
01:00 +27°C° 0.1 mm 9 mps 752 mmHg 79%
02:00 +27°C° 0.1 mm 8 mps 752 mmHg 79%
03:00 +27°C° 0.1 mm 8 mps 751 mmHg 79%
04:00 +27°C° 0 mm 7 mps 751 mmHg 79%
05:00 +27°C° 0 mm 7 mps 751 mmHg 78%
06:00 +27°C° 0 mm 6 mps 751 mmHg 78%
07:00 +27°C° 0.2 mm 6 mps 751 mmHg 78%
08:00 +27°C° 0.2 mm 5 mps 752 mmHg 78%
09:00 +27°C° 0.2 mm 5 mps 752 mmHg 79%
10:00 +28°C° 0.2 mm 5 mps 751 mmHg 76%
11:00 +28°C° 0.2 mm 4 mps 751 mmHg 72%
12:00 +29°C° 0.2 mm 4 mps 751 mmHg 69%
13:00 +29°C° 0 mm 5 mps 751 mmHg 69%
14:00 +29°C° 0 mm 5 mps 751 mmHg 69%
15:00 +29°C° 0 mm 5 mps 750 mmHg 69%
16:00 +29°C° 0 mm 5 mps 751 mmHg 69%
17:00 +29°C° 0 mm 6 mps 751 mmHg 69%
18:00 +29°C° 0 mm 6 mps 751 mmHg 69%
19:00 +28°C° 0.2 mm 6 mps 752 mmHg 72%
20:00 +28°C° 0.2 mm 6 mps 752 mmHg 74%
21:00 +27°C° 0.2 mm 6 mps 753 mmHg 76%
22:00 +27°C° 0 mm 6 mps 753 mmHg 76%
23:00 +27°C° 0 mm 6 mps 752 mmHg 76%

9 July, Thursday

Time Temperature Precipitation Wind Pressure Humidity
00:00 +27°C° 0 mm 5 mps 752 mmHg 76%
01:00 +27°C° 0 mm 5 mps 752 mmHg 76%
02:00 +27°C° 0 mm 5 mps 752 mmHg 75%
03:00 +27°C° 0 mm 4 mps 752 mmHg 75%
04:00 +26°C° 0.5 mm 4 mps 752 mmHg 78%
05:00 +26°C° 0.5 mm 4 mps 752 mmHg 80%
06:00 +26°C° 0.5 mm 4 mps 752 mmHg 83%
07:00 +25°C° 5.1 mm 4 mps 753 mmHg 85%
08:00 +25°C° 5.1 mm 4 mps 753 mmHg 88%
09:00 +25°C° 5.1 mm 5 mps 753 mmHg 90%
10:00 +24°C° 3.4 mm 6 mps 753 mmHg 87%
11:00 +26°C° 3.4 mm 6 mps 753 mmHg 84%
12:00 +26°C° 3.4 mm 7 mps 753 mmHg 81%
13:00 +27°C° 0.1 mm 8 mps 753 mmHg 74%
14:00 +29°C° 0.1 mm 8 mps 753 mmHg 68%
15:00 +31°C° 0.1 mm 8 mps 753 mmHg 61%
16:00 +29°C° 0 mm 8 mps 753 mmHg 63%
17:00 +29°C° 0 mm 8 mps 753 mmHg 65%
18:00 +29°C° 0 mm 8 mps 754 mmHg 67%
19:00 +28°C° 0 mm 9 mps 754 mmHg 67%
20:00 +28°C° 0 mm 9 mps 754 mmHg 66%
21:00 +28°C° 0 mm 10 mps 755 mmHg 66%
22:00 +28°C° 0 mm 9 mps 755 mmHg 65%
23:00 +28°C° 0 mm 8 mps 755 mmHg 64%

10 July, Friday

Time Temperature Precipitation Wind Pressure Humidity
00:00 +28°C° 0 mm 7 mps 755 mmHg 63%
01:00 +28°C° 0.1 mm 6 mps 755 mmHg 66%
02:00 +27°C° 0.1 mm 5 mps 755 mmHg 69%
03:00 +27°C° 0.1 mm 4 mps 755 mmHg 73%
04:00 +27°C° 0 mm 4 mps 756 mmHg 73%
05:00 +27°C° 0 mm 4 mps 756 mmHg 74%
06:00 +27°C° 0 mm 4 mps 756 mmHg 75%
07:00 +27°C° 0.3 mm 4 mps 756 mmHg 75%
08:00 +26°C° 0.3 mm 4 mps 757 mmHg 76%
09:00 +26°C° 0.3 mm 4 mps 757 mmHg 77%
10:00 +27°C° 0.1 mm 5 mps 757 mmHg 71%
11:00 +28°C° 0.1 mm 6 mps 757 mmHg 64%
12:00 +29°C° 0.1 mm 7 mps 757 mmHg 58%
13:00 +29°C° 0 mm 7 mps 756 mmHg 59%
14:00 +29°C° 0 mm 7 mps 756 mmHg 60%
15:00 +29°C° 0 mm 8 mps 756 mmHg 61%
16:00 +29°C° 0.1 mm 7 mps 756 mmHg 63%
17:00 +28°C° 0.1 mm 7 mps 756 mmHg 65%
18:00 +27°C° 0.1 mm 6 mps 756 mmHg 67%
19:00 +27°C° 0.4 mm 5 mps 757 mmHg 71%
20:00 +26°C° 0.4 mm 4 mps 757 mmHg 75%
21:00 +26°C° 0.4 mm 3 mps 757 mmHg 79%
22:00 +26°C° 0.5 mm 3 mps 757 mmHg 80%
23:00 +26°C° 0.5 mm 2 mps 757 mmHg 81%
Show more